User: anonymous   Login
Location: Unspecified
(0.0000°N, 0.0000°E)
Time: 00:49:44
(UTC+00:00)
Language:

STARLINK-6296 - Orbit

View from above orbital plane
View from above orbital plane
View from above satellite
View from above satellite

Ground track
Ground track

The orbit is defined by the following mean orbital elements,

1 56773U          26145.33992331 +.00000000 +00000-0 +23273-4 0 00003
2 56773  69.9994 111.3660 0003673 266.4440  93.6299 14.98333954    06
Epoch (UTC): 25 May 2026 08:09:29
Eccentricity: 0.0003673
inclination: 69.9994°
perigee height: 569 km
apogee height: 575 km
right ascension of ascending node: 111.3660°
argument of perigee: 266.4440°
revolutions per day: 14.98333954
mean anomaly at epoch: 93.6299°

The dashed part of the orbit path shows where the satellite is in the earth's shadow,  

DLR